Regional Weather Roundup
Issued by NWS Little Rock, AR

Home | Current Version | Previous Version | Graphics & Text | Print | Product List | Glossary On
Versions: 1 2 3 4 5 6 7 8 9 10 11 12 13 14 15 16 17 18 19 20 21 22 23 24 25 26 27 28 29 30 31 32 33 34 35 36 37 38 39 40 41 42 43 44 45 46 47 48 49 50
000
ASUS44 KLZK 300505
RWRLZK

WEATHER ROUNDUP FOR ARKANSAS
NATIONAL WEATHER SERVICE LITTLE ROCK AR
1200 AM CDT WED JUL 30 2014

NOTE: "FAIR" INDICATES FEW OR NO CLOUDS BELOW 12,000 FEET WITH NO
SIGNIFICANT WEATHER AND/OR OBSTRUCTIONS TO VISIBILITY.

ARZ001-003-010-029-300600-
NORTHWEST ARKANSAS

CITY           SKY/WX    TMP DP  RH WIND       PRES   REMARKS
FAYETTEVILLE   PTCLDY    64  61  90 S3        30.12R
FORT SMITH     MOCLDY    75  68  78 NE3       30.07R
HARRISON       PTCLDY    67  61  81 SW3       30.12S
BENTONVILLE    PTCLDY    66  61  82 CALM      30.13R
ROGERS         PTCLDY    69  61  75 CALM      30.13R
SILOAM SPGS    PTCLDY    68  57  68 E3        30.12S
HIGHFILL       CLEAR     66  61  84 CALM      30.11S
$$

ARZ004-005-016-300600-
NORTH CENTRAL ARKANSAS

CITY           SKY/WX    TMP DP  RH WIND       PRES   REMARKS
BATESVILLE     CLEAR     70  59  68 CALM      30.11R
FLIPPIN        CLEAR     68  61  77 CALM      30.10S
MTN HOME       CLEAR     67  60  78 SE3       30.09S
$$

ARZ040-041-300600-
WEST CENTRAL ARKANSAS

CITY           SKY/WX    TMP DP  RH WIND       PRES   REMARKS
MENA           PTCLDY    70  68  94 CALM      30.12R
MOUNT IDA      PTCLDY    68  67  96 CALM      30.08S
$$

ARZ009-017-025-026-028-300600-
NORTHEAST ARKANSAS

CITY           SKY/WX    TMP DP  RH WIND       PRES   REMARKS
CORNING        FAIR      66  63  88 E3        30.11S
JONESBORO      CLEAR     63  59  87 CALM      30.11S
NEWPORT        CLEAR     68  63  84 SE3       30.12R
WALNUT RIDGE   CLEAR     66  61  82 SE6       30.10S
BLYTHEVILLE    CLEAR     64  58  80 CALM      30.11S
$$

ARZ022-023-033-042-044-300600-
CENTRAL ARKANSAS

CITY           SKY/WX    TMP DP  RH WIND       PRES   REMARKS
LITTLE ROCK    MOCLDY    69  61  75 CALM      30.10R
N LITTLE ROCK  MOCLDY    72  63  72 SE6       30.10R
JACKSONVILLE   CLEAR     68  64  84 CALM      30.10R
SEARCY         CLEAR     66  63  90 CALM      30.11S
HOT SPRINGS    PTCLDY    70  64  81 E6        30.10S
RUSSELLVILLE   PTCLDY    69  66  90 CALM      30.08S
CLINTON        FAIR      66  64  94 CALM      30.12R
$$

ARZ036-300600-
EAST ARKANSAS

CITY           SKY/WX    TMP DP  RH WIND       PRES   REMARKS
WEST MEMPHIS   CLEAR     63  61  93 CALM      30.10S
$$

ARZ050-053-066-070-073-300600-
SOUTHWEST ARKANSAS

CITY           SKY/WX    TMP DP  RH WIND       PRES   REMARKS
ARKADELPHIA    LGT RAIN  71  68  90 CALM      30.09S
CAMDEN         CLEAR     68  61  77 CALM      30.08F
TEXARKANA      PTCLDY    74  66  76 SE3       30.08R
EL DORADO      CLEAR     70  64  81 CALM      30.09S
DE QUEEN       PTCLDY    72  70  93 CALM      30.06S
$$

ARZ056-057-069-300600-
SOUTHEAST ARKANSAS

CITY           SKY/WX    TMP DP  RH WIND       PRES   REMARKS
PINE BLUFF     MOCLDY    68  63  84 CALM      30.10S
STUTTGART      CLEAR     70  61  73 SE6       30.10S
MONTICELLO     PTCLDY    68  62  81 CALM      30.09S

$$





USA.gov is the U.S. government's official web portal to all federal, state and local government web resources and services.